星链-1995 (STARLINK-1995 )

导读 | 豆包AI

STARLINK-1995是美国SpaceX公司星链星座中的一员,于2021年2月4日发射升空。星链项目旨在构建全球卫星互联网,为传统网络覆盖不足的偏远地区提供高速宽带服务,也可在灾害应急等场景保障通信。作为低轨星座的组成部分,该卫星参与组网,共同实现全球范围的互联网接入服务,目前星链已在超150个国家和地区提供服务,覆盖超900万用户。

基本信息
目录编号:
47590
目录名称:
STARLINK-1995
国际标识:
2021-009AU
轨道中心:
EARTH
卫星名称:
星链-1995
卫星全名:
星链-1995 (STARLINK-1995 )
卫星状态:
在轨 (已飞行1911 天)
发射日期:
2021-02-04 UTC
国别 :
美国 (US)
星等 :
--
轨道信息
数据来源 国际轨道数据
星历时间: 2026-04-30T12:01:44+0800
6小时前
查看轨道信息
半长轴: 6744.93km
偏心率: 0.0004691
轨道倾角: 53.040°
近地点辐角 14.579°
升交点赤经 128.037°
平近点角 345.536°
近地点: 363.628km
远地点: 369.958km
周期: 91.881分钟
每日圈数: 15.672442
详细信息
固有亮度:
5
最大亮度:
2.5
卫星平台:
Starlink V1.0
覆盖范围:
全球
运营商:
太空探索技术公司
运营商所在国:
美国
制造商(研发单位):
太空探索技术公司
制造商所在国:
美国
使用方式:
暂无
卫星简介
星链(Starlink)计划是由太空探索技术公司(SpaceX)提出的一个巨型低轨卫星互联网星座项目,计划在2019年至2024年间在太空搭建由约1.2万颗卫星组成的“星链”网络,其中1584颗将部署在地球上空550千米处的近地轨道,并从2020年开始工作。该卫星仍在工作。
2D轨道图
3D轨道图
轨道高度分析图
轨道倾角分析图
轨道综合分析图
查看轨道综合分析图